COSMOS 2529 (757) (43687 NORAD) Tracking and Keplerian Element Data

This shows tracking and keplerian element data for the satellite.

Feedback or suggestion? Click here.




ElementValue
Catalog43687
NameCOSMOS 2529 (757)
Epoch Orbit354
Epoch Day109.30813267
Epoch Year2019
RAAN281.7755
Inclination64.7384
Eccentricity0.0007988
Argument of Perigee278.5886
Mean Anonmoly270.6521
Mean Motion2.13102005
Decay Rate-1.5E-07
L11 43687U 18086A 19109.30813267 -.00000015 00000-0 00000-0 0 9998
L22 43687 64.7384 281.7755 0007988 278.5886 270.6521 2.13102005 3542

Live tracking and technical data element details for COSMOS 2529 (757) (NORAD 43687). COSMOS 2529 (757) can be tracked NOW for your location showing map with azimuth and elevation plus other details from your city location.

Track the satellite on the map from your city or location and see movement details for azimuth, elevation, latitude, longitude, range, height, and movement on the map or in text.







IsCatalogInMostPopularTable: catalog: 43687, numindb: 86
Update: records affected: 1



GetName: 43687 COSMOS 2529 (757)

Hit Count: updated at: Sat, 20 Apr 2019 20:39:56 GMT